GFSFLT1_con_3kmhel_195.txt.gz
Helicity
75 107 118 131 181 242 278 320 296 348 347 242 183 157 150 191 191 212 205 181 178 192 180 195 193 165 195 229 220 217 221 273
119 180 182 164 175 252 272 323 315 359 321 276 182 159 162 153 159 176 201 163 144 167 179 223 228 209 214 235 345 305 322 446
175 197 173 201 196 190 206 233 291 263 254 251 179 236 196 195 215 195 173 176 179 176 191 188 225 273 297 332 358 379 407 478
161 161 158 139 144 111 127 181 225 230 257 361 336 319 197 199 201 199 214 207 189 203 200 230 284 329 340 337 344 417 502 531
123 133 166 133 116 111 98 135 192 243 284 304 316 253 253 236 248 266 260 251 211 193 227 283 300 357 349 377 448 482 575 595
85 120 121 107 103 109 109 147 154 162 224 219 241 251 305 297 266 274 270 261 278 271 255 286 310 353 365 411 440 488 556 514
127 139 70 72 80 83 97 113 109 125 176 203 211 212 249 255 268 258 273 262 306 288 282 310 348 397 383 433 453 510 495 510
90 61 77 71 43 49 61 78 82 90 136 168 180 185 203 217 248 255 261 269 286 306 320 314 311 342 374 451 473 424 456 376
44 31 58 71 56 51 58 68 75 99 129 152 165 187 197 211 226 231 251 264 317 301 301 313 335 310 325 369 372 353 275 237
60 75 88 89 40 4 -2 -16 24 84 122 131 157 171 175 167 176 170 178 214 253 225 253 316 312 299 333 362 314 358 444 322
97 84 58 45 14 3 -17 -2 23 33 66 86 111 142 181 177 152 153 169 184 214 256 243 293 301 291 282 297 342 396 344 366
116 120 71 41 32 44 16 32 40 19 30 48 74 109 148 172 166 142 162 194 214 256 296 308 325 366 363 331 343 356 369 308
227 113 74 68 90 96 87 111 110 96 64 83 97 116 111 114 139 164 185 209 236 271 298 313 334 382 369 344 313 289 308 303
234 210 204 206 215 204 225 214 220 206 161 131 123 137 135 121 112 135 173 211 241 258 278 297 307 294 281 281 297 315 267 194
267 300 322 324 310 290 266 268 257 233 206 169 154 144 142 131 164 176 177 187 219 235 222 268 282 275 268 272 278 259 218 155
230 264 262 259 254 260 281 285 282 220 208 192 199 180 183 157 155 171 159 180 202 214 282 285 292 265 248 257 211 186 152 172
191 197 175 190 212 254 259 243 221 189 151 132 184 221 221 192 206 176 193 216 252 336 304 271 268 263 210 181 165 195 200 202
208 217 241 267 250 263 268 220 174 151 164 158 156 189 197 228 244 245 264 246 246 206 318 335 256 201 206 224 204 212 220 191
172 195 222 223 246 253 215 178 155 150 139 129 144 151 168 196 249 303 272 254 235 306 260 311 343 287 229 226 237 218 213 174

GFSFLT1_con_3kmhel_198.txt.gz
Helicity
75 25 70 107 181 253 241 257 274 295 298 315 262 151 99 100 122 118 129 167 192 185 164 155 160 157 175 211 204 249 249 272
101 90 104 124 114 207 244 309 318 330 317 319 244 133 116 97 113 133 148 163 189 176 154 152 157 144 164 186 246 302 365 402
124 129 102 92 75 101 149 221 265 241 244 240 185 164 100 103 130 122 116 150 168 163 159 154 158 160 188 226 276 316 390 372
118 77 50 72 91 56 115 168 178 187 220 258 228 196 122 101 96 128 136 123 133 129 143 163 175 191 193 244 309 337 390 330
110 73 51 81 88 77 109 143 158 172 186 176 152 130 122 103 106 135 142 147 153 162 151 159 190 204 204 245 296 340 396 457
116 71 49 60 73 88 105 129 130 132 137 137 158 146 135 103 104 127 134 157 181 170 156 174 190 226 205 269 267 302 335 378
111 57 67 37 52 64 75 86 75 69 79 90 106 122 133 140 130 129 139 161 124 122 125 154 183 204 203 204 197 242 286 327
107 53 60 52 62 50 55 63 62 38 56 78 88 99 115 102 97 118 133 126 132 151 134 152 168 161 159 182 221 292 265 408
102 56 64 51 48 52 72 74 74 60 56 74 88 84 77 90 102 118 134 147 159 172 184 161 182 175 171 171 245 207 244 271
115 93 49 68 83 85 64 55 22 12 34 73 86 85 92 101 119 127 129 150 147 155 178 197 218 233 244 206 231 244 268 288
155 90 96 105 100 86 76 49 42 50 47 56 67 83 86 81 85 89 96 96 123 133 157 189 227 254 225 254 234 239 245 246
129 131 137 141 124 123 116 106 107 109 121 99 89 96 96 89 73 69 80 118 126 137 173 215 247 277 270 266 253 263 245 293
243 202 184 144 139 117 102 106 117 128 127 130 123 115 91 93 104 103 95 86 99 138 192 231 274 299 280 270 300 267 276 281
327 294 240 164 113 106 119 140 154 153 131 107 89 95 97 100 100 126 114 106 131 157 181 212 219 223 249 262 302 297 271 308
333 302 218 172 160 132 135 146 115 90 82 72 72 67 50 76 85 95 106 136 166 194 190 200 231 261 265 252 251 257 263 271
392 311 262 197 171 167 176 176 193 175 142 116 76 56 117 130 142 151 150 158 161 200 210 200 220 224 221 283 250 280 324 344
287 258 198 191 183 176 192 201 192 211 249 237 208 183 153 160 170 187 210 201 190 205 182 198 241 236 230 266 266 301 316 296
151 120 111 139 133 138 180 217 240 237 222 214 192 173 157 157 169 177 177 198 235 224 253 262 236 232 256 269 290 348 320 217
208 133 151 89 66 113 150 161 145 149 146 136 132 136 129 132 149 169 180 211 231 249 230 259 232 254 227 266 326 325 378 275

GFSFLT1_con_3kmhel_201.txt.gz
Helicity
31 79 108 98 72 61 113 180 121 120 153 164 143 123 84 60 73 90 98 102 68 65 67 73 84 68 100 125 120 117 163 166
75 103 153 131 90 91 125 126 127 199 209 211 162 163 143 71 62 77 74 82 75 72 94 96 91 71 76 108 146 172 243 314
73 119 124 112 94 78 116 106 105 127 154 149 131 154 124 85 80 50 59 62 71 78 91 106 102 100 95 133 181 215 267 320
83 118 143 117 62 47 50 64 49 73 113 194 206 156 120 96 58 43 65 58 67 63 61 83 103 116 117 134 157 217 253 305
116 119 137 108 77 63 15 50 60 89 145 127 137 101 95 62 72 84 73 88 93 73 70 80 84 117 118 153 175 209 284 279
137 161 137 99 72 55 62 83 89 120 110 95 106 80 83 97 102 76 77 110 94 86 76 90 100 110 111 127 175 183 210 275
175 165 134 96 81 75 78 88 88 72 60 62 69 86 91 115 130 132 147 119 121 94 104 88 104 94 126 144 161 162 168 222
187 187 140 104 59 73 84 76 75 69 53 36 31 43 54 69 92 111 132 103 81 98 137 133 122 88 120 126 140 161 184 208
178 205 169 139 103 104 108 102 108 92 82 66 57 66 72 78 71 73 57 44 54 70 92 117 103 105 115 137 143 141 153 207
183 209 200 165 151 165 152 163 170 150 133 120 131 138 129 118 117 105 103 112 106 94 93 99 115 118 126 131 175 178 198 242
219 217 210 232 198 192 221 207 194 159 133 113 110 106 109 111 104 108 102 97 97 107 104 98 103 124 148 168 186 192 198 218
226 267 240 220 227 222 212 178 162 145 130 131 135 142 139 133 119 106 91 84 83 85 91 95 114 142 166 173 185 208 225 221
299 279 253 221 232 228 208 178 171 164 153 146 142 128 105 97 94 88 60 58 67 68 61 68 97 123 158 174 210 241 235 218
414 350 275 248 229 205 189 188 162 146 144 153 150 137 120 102 90 90 94 84 74 57 60 71 102 143 180 200 222 230 217 217
411 376 322 262 222 200 196 177 173 174 176 170 164 143 125 103 88 88 101 101 90 73 47 61 66 99 120 166 202 234 226 211
417 411 348 302 285 256 238 215 187 160 148 152 132 93 82 58 57 78 76 66 57 47 58 73 76 117 165 169 205 218 215 214
446 431 366 353 327 251 174 147 146 129 130 118 81 44 36 69 77 73 63 57 78 102 109 128 126 159 147 171 203 209 248 200
477 340 298 244 193 176 191 175 160 168 141 139 162 187 188 154 113 105 118 116 133 140 144 171 181 175 196 217 239 269 258 247
554 333 210 241 249 259 265 243 231 207 185 169 156 139 119 132 133 138 148 154 158 162 151 158 173 202 221 251 246 253 260 270

GFSFLT1_con_3kmhel_207.txt.gz
Helicity
15 18 7 21 48 75 103 201 219 168 152 154 108 63 80 72 53 37 94 103 58 54 -20 26 112 26 56 44 68 67 75 113
22 13 9 79 76 110 158 158 328 260 225 170 160 125 126 57 70 50 83 129 106 78 19 39 110 113 93 67 89 87 143 101
20 37 83 53 85 114 145 168 217 294 209 129 125 129 105 64 91 98 128 176 131 119 77 64 104 133 69 109 116 119 145 214
42 53 93 56 80 116 117 91 160 260 168 106 169 260 242 201 160 208 194 177 150 120 95 85 103 108 99 100 131 171 210 200
58 96 110 100 95 129 88 94 114 205 179 238 283 253 237 198 200 253 213 167 131 119 107 95 108 128 110 106 100 140 243 220
70 107 119 126 148 129 127 97 123 216 160 280 182 99 61 101 182 204 175 164 152 137 135 113 118 138 116 94 106 140 170 196
116 223 163 147 164 213 153 130 137 141 194 141 77 40 65 192 192 211 239 295 268 231 227 196 172 154 149 139 125 123 152 184
153 173 141 164 228 234 166 157 152 99 103 118 71 173 204 179 210 250 274 276 231 207 201 198 180 161 157 159 156 157 159 177
114 130 126 178 229 226 215 206 184 103 85 110 145 169 202 207 204 213 239 222 202 215 198 180 184 169 157 135 127 125 126 133
62 94 114 256 212 250 256 272 286 240 237 236 247 247 268 246 242 240 261 259 248 223 176 151 147 125 116 121 124 113 111 120
71 60 161 264 225 263 288 266 278 267 277 297 310 306 288 261 235 211 202 184 160 152 127 102 107 116 106 96 99 106 104 119
96 103 212 275 219 288 325 314 313 357 368 336 276 220 171 156 161 160 156 145 128 128 137 121 98 84 88 90 81 84 90 99
108 150 279 250 239 271 356 331 316 288 250 219 177 156 162 173 179 173 159 174 171 159 124 92 88 91 74 61 66 62 75 87
128 142 260 233 195 211 321 310 279 250 230 208 175 178 193 201 194 195 195 181 167 145 121 119 99 81 70 78 78 89 89 95
86 130 228 217 214 239 271 334 305 283 247 233 243 258 264 259 246 224 198 174 160 158 140 115 103 106 122 129 92 86 102 121
79 87 207 253 236 227 297 345 330 312 293 267 272 267 264 261 263 251 237 217 169 206 251 204 155 152 119 143 137 126 128 112
133 119 258 407 437 322 448 400 333 294 302 317 309 318 331 342 327 310 341 327 228 156 138 116 112 134 156 128 132 141 139 128
192 242 332 377 450 398 365 366 362 368 395 367 344 325 329 312 275 233 211 184 135 96 54 62 113 109 100 136 118 110 117 128
272 361 373 335 338 293 371 415 444 383 368 362 329 311 290 252 212 182 119 13 10 101 136 123 106 109 130 110 112 123 141 146